Retour au catalogue

COSMOS 1285 DEB

LostHEO
NORAD 29296·DEBRIS·🇷🇺 Russia

Lancé Aug 4, 1981 depuis Plesetsk Cosmodrome

Loading…

Prochains Passages (prochaines 24 heures)

TLE

PériméSource: Space-Track

Époque: Apr 25, 2012, 07:26 UTC

1 29296U 81071W   12116.31004034  .00000717  00000-0  00000+0 0  9995
2 29296  68.9543 352.0231 6062649 130.5474  25.7256  1.98194815 70187

Suivez COSMOS 1285 DEB en temps réel avec AllMySat

Download on the App Store